Time,TemperatureF,DewpointF,PressureIn,WindDirection,WindDirectionDegrees,WindSpeedMPH,WindSpeedGustMPH,Humidity,HourlyPrecipIn,Conditions,Clouds,dailyrainin,SoftwareType,DateUTC
2013-07-07 00:01:00,85.2,73.4,30.04,SSW,200,1.0,1.0,68,0.00,,,0.00,WeatherCatV1.02B3,2013-07-07 04:01:00,
2013-07-07 00:06:00,85.2,73.4,30.04,SSW,200,0.0,1.0,68,0.00,,,0.00,WeatherCatV1.02B3,2013-07-07 04:06:00,
2013-07-07 00:11:00,85.2,73.4,30.04,SSW,200,0.0,1.0,68,0.00,,,0.00,WeatherCatV1.02B3,2013-07-07 04:11:00,
2013-07-07 00:16:00,85.1,73.3,30.04,SSW,209,0.0,1.0,68,0.00,,,0.00,WeatherCatV1.02B3,2013-07-07 04:16:00,
2013-07-07 00:21:00,85.0,73.7,30.03,SSW,208,0.0,1.0,69,0.00,,,0.00,WeatherCatV1.02B3,2013-07-07 04:21:00,
2013-07-07 00:26:00,85.0,73.7,30.03,SSW,208,1.0,1.0,69,0.00,,,0.00,WeatherCatV1.02B3,2013-07-07 04:26:00,
2013-07-07 00:31:00,84.8,73.9,30.03,SW,223,1.0,2.0,70,0.00,,,0.00,WeatherCatV1.02B3,2013-07-07 04:31:00,
2013-07-07 00:36:00,84.7,73.8,30.03,SW,217,1.0,2.0,70,0.00,,,0.00,WeatherCatV1.02B3,2013-07-07 04:36:00,
2013-07-07 00:41:00,84.7,73.8,30.03,SSW,208,0.0,2.0,70,0.00,,,0.00,WeatherCatV1.02B3,2013-07-07 04:41:00,
2013-07-07 00:46:00,84.7,74.2,30.03,SW,217,1.0,2.0,71,0.00,,,0.00,WeatherCatV1.02B3,2013-07-07 04:46:00,
2013-07-07 00:51:00,84.6,74.1,30.03,SW,218,1.0,1.0,71,0.00,,,0.00,WeatherCatV1.02B3,2013-07-07 04:51:00,
2013-07-07 00:56:00,84.5,74.0,30.03,SSW,205,0.0,2.0,71,0.00,,,0.00,WeatherCatV1.02B3,2013-07-07 04:56:00,
2013-07-07 01:01:00,84.4,73.9,30.04,South,190,1.0,2.0,71,0.00,,,0.00,WeatherCatV1.02B3,2013-07-07 05:01:00,
2013-07-07 01:06:00,84.3,74.3,30.03,SW,229,1.0,2.0,72,0.00,,,0.00,WeatherCatV1.02B3,2013-07-07 05:06:00,
2013-07-07 01:11:00,84.2,74.2,30.03,SW,229,0.0,1.0,72,0.00,,,0.00,WeatherCatV1.02B3,2013-07-07 05:11:00,
2013-07-07 01:16:00,84.1,74.1,30.03,SW,229,0.0,1.0,72,0.00,,,0.00,WeatherCatV1.02B3,2013-07-07 05:16:00,
2013-07-07 01:21:00,84.0,74.4,30.03,SW,229,1.0,1.0,73,0.00,,,0.00,WeatherCatV1.02B3,2013-07-07 05:21:00,
2013-07-07 01:26:00,83.9,74.3,30.03,SW,229,1.0,1.0,73,0.00,,,0.00,WeatherCatV1.02B3,2013-07-07 05:26:00,
2013-07-07 01:31:00,83.8,74.2,30.03,SW,229,1.0,1.0,73,0.00,,,0.00,WeatherCatV1.02B3,2013-07-07 05:31:00,
2013-07-07 01:36:00,83.7,74.1,30.03,SW,227,0.0,2.0,73,0.00,,,0.00,WeatherCatV1.02B3,2013-07-07 05:36:00,
2013-07-07 01:41:00,83.6,74.4,30.03,SW,227,0.0,1.0,74,0.00,,,0.00,WeatherCatV1.02B3,2013-07-07 05:41:00,
2013-07-07 01:46:00,83.5,74.3,30.03,SW,227,0.0,1.0,74,0.00,,,0.00,WeatherCatV1.02B3,2013-07-07 05:46:00,
2013-07-07 01:51:00,83.4,74.2,30.03,SW,227,0.0,0.0,74,0.00,,,0.00,WeatherCatV1.02B3,2013-07-07 05:51:00,
2013-07-07 01:56:00,83.2,74.0,30.02,SW,227,0.0,1.0,74,0.00,,,0.00,WeatherCatV1.02B3,2013-07-07 05:56:00,
2013-07-07 02:01:00,83.1,74.3,30.03,SW,227,0.0,1.0,75,0.00,,,0.00,WeatherCatV1.02B3,2013-07-07 06:01:00,
2013-07-07 02:06:00,83.0,74.2,30.02,SW,219,1.0,3.0,75,0.00,,,0.00,WeatherCatV1.02B3,2013-07-07 06:06:00,
2013-07-07 02:11:00,82.9,74.1,30.02,SW,233,2.0,2.0,75,0.00,,,0.00,WeatherCatV1.02B3,2013-07-07 06:11:00,
2013-07-07 02:16:00,82.9,74.1,30.02,SW,233,0.0,1.0,75,0.00,,,0.00,WeatherCatV1.02B3,2013-07-07 06:16:00,
2013-07-07 02:21:00,82.8,74.4,30.03,SW,234,1.0,2.0,76,0.00,,,0.00,WeatherCatV1.02B3,2013-07-07 06:21:00,
2013-07-07 02:26:00,82.7,74.3,30.02,SW,226,0.0,2.0,76,0.00,,,0.00,WeatherCatV1.02B3,2013-07-07 06:26:00,
2013-07-07 02:31:00,82.6,74.2,30.03,SW,226,0.0,1.0,76,0.00,,,0.00,WeatherCatV1.02B3,2013-07-07 06:31:00,
2013-07-07 02:36:00,82.5,74.1,30.03,SW,218,1.0,2.0,76,0.00,,,0.00,WeatherCatV1.02B3,2013-07-07 06:36:00,
2013-07-07 02:41:00,82.4,74.4,30.03,SW,218,0.0,2.0,77,0.00,,,0.00,WeatherCatV1.02B3,2013-07-07 06:41:00,
2013-07-07 02:46:00,82.4,74.4,30.02,SW,220,1.0,3.0,77,0.00,,,0.00,WeatherCatV1.02B3,2013-07-07 06:46:00,
2013-07-07 02:51:00,82.3,74.3,30.02,SW,219,0.0,2.0,77,0.00,,,0.00,WeatherCatV1.02B3,2013-07-07 06:51:00,
2013-07-07 02:56:00,82.1,74.2,30.02,SW,219,0.0,0.0,77,0.00,,,0.00,WeatherCatV1.02B3,2013-07-07 06:56:00,
2013-07-07 03:01:00,82.1,74.5,30.02,SW,219,0.0,1.0,78,0.00,,,0.00,WeatherCatV1.02B3,2013-07-07 07:01:00,
2013-07-07 03:06:00,81.9,74.3,30.02,SW,219,0.0,2.0,78,0.00,,,0.00,WeatherCatV1.02B3,2013-07-07 07:06:00,
2013-07-07 03:11:00,81.9,74.3,30.02,SW,219,0.0,1.0,78,0.00,,,0.00,WeatherCatV1.02B3,2013-07-07 07:11:00,
2013-07-07 03:16:00,81.8,74.2,30.02,SW,219,0.0,1.0,78,0.00,,,0.00,WeatherCatV1.02B3,2013-07-07 07:16:00,
2013-07-07 03:21:00,81.7,74.2,30.02,SW,219,1.0,1.0,78,0.00,,,0.00,WeatherCatV1.02B3,2013-07-07 07:21:00,
2013-07-07 03:26:00,81.6,74.4,30.02,SW,219,0.0,1.0,79,0.00,,,0.00,WeatherCatV1.02B3,2013-07-07 07:26:00,
2013-07-07 03:31:00,81.5,74.3,30.01,SW,219,0.0,0.0,79,0.00,,,0.00,WeatherCatV1.02B3,2013-07-07 07:31:00,
2013-07-07 03:36:00,81.3,74.1,30.01,SW,219,0.0,0.0,79,0.00,,,0.00,WeatherCatV1.02B3,2013-07-07 07:36:00,
2013-07-07 03:41:00,81.2,74.0,30.01,SW,219,0.0,0.0,79,0.00,,,0.00,WeatherCatV1.02B3,2013-07-07 07:41:00,
2013-07-07 03:46:00,81.1,74.3,30.01,SW,219,0.0,0.0,80,0.00,,,0.00,WeatherCatV1.02B3,2013-07-07 07:46:00,
2013-07-07 03:51:00,81.0,74.2,30.01,SW,219,0.0,0.0,80,0.00,,,0.00,WeatherCatV1.02B3,2013-07-07 07:51:00,
2013-07-07 03:56:00,80.8,74.0,30.01,SW,219,0.0,0.0,80,0.00,,,0.00,WeatherCatV1.02B3,2013-07-07 07:56:00,
2013-07-07 04:01:00,80.7,74.3,30.01,South,186,0.0,0.0,81,0.00,,,0.00,WeatherCatV1.02B3,2013-07-07 08:01:00,
2013-07-07 04:06:00,80.6,74.2,30.01,South,186,0.0,0.0,81,0.00,,,0.00,WeatherCatV1.02B3,2013-07-07 08:06:00,
2013-07-07 04:11:00,80.4,74.0,30.01,South,186,0.0,0.0,81,0.00,,,0.00,WeatherCatV1.02B3,2013-07-07 08:11:00,
2013-07-07 04:16:00,80.3,73.9,30.01,South,186,0.0,0.0,81,0.00,,,0.00,WeatherCatV1.02B3,2013-07-07 08:16:00,
2013-07-07 04:21:00,80.2,74.2,30.01,South,186,0.0,0.0,82,0.00,,,0.00,WeatherCatV1.02B3,2013-07-07 08:21:00,
2013-07-07 04:26:00,80.0,74.0,30.01,South,186,0.0,0.0,82,0.00,,,0.00,WeatherCatV1.02B3,2013-07-07 08:26:00,
2013-07-07 04:31:00,79.9,73.9,30.01,South,186,0.0,0.0,82,0.00,,,0.00,WeatherCatV1.02B3,2013-07-07 08:31:00,
2013-07-07 04:36:00,79.8,73.8,30.01,South,186,0.0,0.0,82,0.00,,,0.00,WeatherCatV1.02B3,2013-07-07 08:36:00,
2013-07-07 04:41:00,79.7,74.1,30.01,South,186,0.0,1.0,83,0.00,,,0.00,WeatherCatV1.02B3,2013-07-07 08:41:00,
2013-07-07 04:46:00,79.6,74.0,30.01,South,186,0.0,0.0,83,0.00,,,0.00,WeatherCatV1.02B3,2013-07-07 08:46:00,
2013-07-07 04:51:00,79.6,74.0,30.01,South,186,0.0,0.0,83,0.00,,,0.00,WeatherCatV1.02B3,2013-07-07 08:51:00,
2013-07-07 04:56:00,79.5,73.9,30.01,South,186,0.0,0.0,83,0.00,,,0.00,WeatherCatV1.02B3,2013-07-07 08:56:00,
2013-07-07 05:01:00,79.4,73.8,30.01,South,186,0.0,0.0,83,0.00,,,0.00,WeatherCatV1.02B3,2013-07-07 09:01:00,
2013-07-07 05:06:00,79.3,73.7,30.01,South,186,0.0,0.0,83,0.00,,,0.00,WeatherCatV1.02B3,2013-07-07 09:06:00,
2013-07-07 05:11:00,79.2,73.9,30.01,South,186,0.0,0.0,84,0.00,,,0.00,WeatherCatV1.02B3,2013-07-07 09:11:00,
2013-07-07 05:16:00,79.1,73.8,30.01,South,186,0.0,0.0,84,0.00,,,0.00,WeatherCatV1.02B3,2013-07-07 09:16:00,
2013-07-07 05:21:00,79.0,73.7,30.01,South,186,0.0,0.0,84,0.00,,,0.00,WeatherCatV1.02B3,2013-07-07 09:21:00,
2013-07-07 05:26:00,78.9,74.0,30.01,South,186,0.0,0.0,85,0.00,,,0.00,WeatherCatV1.02B3,2013-07-07 09:26:00,
2013-07-07 05:31:00,78.8,73.9,30.02,South,183,0.0,0.0,85,0.00,,,0.00,WeatherCatV1.02B3,2013-07-07 09:31:00,
2013-07-07 05:36:00,78.7,73.8,30.02,NW,319,0.0,0.0,85,0.00,,,0.00,WeatherCatV1.02B3,2013-07-07 09:36:00,
2013-07-07 05:41:00,78.7,73.8,30.01,NW,319,0.0,0.0,85,0.00,,,0.00,WeatherCatV1.02B3,2013-07-07 09:41:00,
2013-07-07 05:46:00,78.6,73.7,30.01,NW,319,0.0,0.0,85,0.00,,,0.00,WeatherCatV1.02B3,2013-07-07 09:46:00,
2013-07-07 05:51:00,78.6,73.7,30.02,NW,319,0.0,0.0,85,0.00,,,0.00,WeatherCatV1.02B3,2013-07-07 09:51:00,
2013-07-07 05:56:00,78.5,73.6,30.02,West,262,0.0,2.0,85,0.00,,,0.00,WeatherCatV1.02B3,2013-07-07 09:56:00,
2013-07-07 06:01:00,78.5,73.6,30.02,West,262,0.0,1.0,85,0.00,,,0.00,WeatherCatV1.02B3,2013-07-07 10:01:00,
2013-07-07 06:06:00,78.5,73.6,30.02,West,262,1.0,1.0,85,0.00,,,0.00,WeatherCatV1.02B3,2013-07-07 10:06:00,
2013-07-07 06:11:00,78.5,73.6,30.02,West,262,0.0,0.0,85,0.00,,,0.00,WeatherCatV1.02B3,2013-07-07 10:11:00,
2013-07-07 06:16:00,78.5,73.9,30.02,West,262,0.0,0.0,86,0.00,,,0.00,WeatherCatV1.02B3,2013-07-07 10:16:00,
2013-07-07 06:21:00,78.5,73.9,30.02,West,262,0.0,0.0,86,0.00,,,0.00,WeatherCatV1.02B3,2013-07-07 10:21:00,
2013-07-07 06:26:00,78.6,74.0,30.02,West,262,0.0,1.0,86,0.00,,,0.00,WeatherCatV1.02B3,2013-07-07 10:26:00,
2013-07-07 06:31:00,78.7,74.1,30.02,West,262,0.0,1.0,86,0.00,,,0.00,WeatherCatV1.02B3,2013-07-07 10:31:00,
2013-07-07 06:36:00,78.8,73.9,30.02,West,262,0.0,1.0,85,0.00,,,0.00,WeatherCatV1.02B3,2013-07-07 10:36:00,
2013-07-07 06:41:00,78.9,74.0,30.02,West,262,0.0,1.0,85,0.00,,,0.00,WeatherCatV1.02B3,2013-07-07 10:41:00,
2013-07-07 06:46:00,79.0,74.1,30.02,SSW,200,1.0,1.0,85,0.00,,,0.00,WeatherCatV1.02B3,2013-07-07 10:46:00,
2013-07-07 06:51:00,79.2,73.9,30.02,SSW,200,1.0,1.0,84,0.00,,,0.00,WeatherCatV1.02B3,2013-07-07 10:51:00,
2013-07-07 06:56:00,79.4,74.1,30.02,SSW,200,0.0,1.0,84,0.00,,,0.00,WeatherCatV1.02B3,2013-07-07 10:56:00,
2013-07-07 07:01:00,79.6,74.3,30.02,SSE,164,0.0,1.0,84,0.00,,,0.00,WeatherCatV1.02B3,2013-07-07 11:01:00,
2013-07-07 07:06:00,79.8,74.2,30.02,SSE,165,1.0,1.0,83,0.00,,,0.00,WeatherCatV1.02B3,2013-07-07 11:06:00,
2013-07-07 07:11:00,80.0,74.4,30.02,WSW,240,1.0,1.0,83,0.00,,,0.00,WeatherCatV1.02B3,2013-07-07 11:11:00,
2013-07-07 07:16:00,80.1,74.1,30.02,SW,235,1.0,3.0,82,0.00,,,0.00,WeatherCatV1.02B3,2013-07-07 11:16:00,
2013-07-07 07:21:00,80.3,74.3,30.02,SW,223,0.0,1.0,82,0.00,,,0.00,WeatherCatV1.02B3,2013-07-07 11:21:00,
2013-07-07 07:26:00,80.5,74.5,30.02,SW,223,0.0,2.0,82,0.00,,,0.00,WeatherCatV1.02B3,2013-07-07 11:26:00,
2013-07-07 07:31:00,80.8,74.4,30.02,SW,223,0.0,1.0,81,0.00,,,0.00,WeatherCatV1.02B3,2013-07-07 11:31:00,
2013-07-07 07:36:00,81.0,74.6,30.02,South,181,1.0,1.0,81,0.00,,,0.00,WeatherCatV1.02B3,2013-07-07 11:36:00,
2013-07-07 07:41:00,81.3,74.5,30.02,South,181,1.0,2.0,80,0.00,,,0.00,WeatherCatV1.02B3,2013-07-07 11:41:00,
2013-07-07 07:46:00,81.5,74.3,30.02,SSE,158,0.0,1.0,79,0.00,,,0.00,WeatherCatV1.02B3,2013-07-07 11:46:00,
2013-07-07 07:51:00,81.8,74.6,30.02,SSE,158,1.0,1.0,79,0.00,,,0.00,WeatherCatV1.02B3,2013-07-07 11:51:00,
2013-07-07 07:56:00,82.1,74.5,30.02,SSE,158,0.0,1.0,78,0.00,,,0.00,WeatherCatV1.02B3,2013-07-07 11:56:00,
2013-07-07 08:01:00,82.3,74.3,30.02,SSW,206,3.0,3.0,77,0.00,,,0.00,WeatherCatV1.02B3,2013-07-07 12:01:00,
2013-07-07 08:06:00,82.6,74.2,30.02,SSW,207,0.0,2.0,76,0.00,,,0.00,WeatherCatV1.02B3,2013-07-07 12:06:00,
2013-07-07 08:11:00,82.9,74.5,30.02,SSW,207,1.0,2.0,76,0.00,,,0.00,WeatherCatV1.02B3,2013-07-07 12:11:00,
2013-07-07 08:16:00,83.1,74.3,30.02,SSW,207,1.0,1.0,75,0.00,,,0.00,WeatherCatV1.02B3,2013-07-07 12:16:00,
2013-07-07 08:21:00,83.3,74.5,30.02,SSW,213,1.0,2.0,75,0.00,,,0.00,WeatherCatV1.02B3,2013-07-07 12:21:00,
2013-07-07 08:26:00,83.4,74.2,30.02,SW,221,2.0,2.0,74,0.00,,,0.00,WeatherCatV1.02B3,2013-07-07 12:26:00,
2013-07-07 08:31:00,83.6,74.4,30.02,SW,221,0.0,1.0,74,0.00,,,0.00,WeatherCatV1.02B3,2013-07-07 12:31:00,
2013-07-07 08:36:00,84.0,74.4,30.02,SW,220,2.0,2.0,73,0.00,,,0.00,WeatherCatV1.02B3,2013-07-07 12:36:00,
2013-07-07 08:41:00,84.2,74.6,30.02,SW,220,1.0,2.0,73,0.00,,,0.00,WeatherCatV1.02B3,2013-07-07 12:41:00,
2013-07-07 08:46:00,84.4,74.4,30.03,SW,220,1.0,2.0,72,0.00,,,0.00,WeatherCatV1.02B3,2013-07-07 12:46:00,
2013-07-07 08:51:00,84.4,74.8,30.02,SW,220,0.0,2.0,73,0.00,,,0.00,WeatherCatV1.02B3,2013-07-07 12:51:00,
2013-07-07 08:56:00,84.7,74.2,30.02,SW,220,1.0,2.0,71,0.00,,,0.00,WeatherCatV1.02B3,2013-07-07 12:56:00,
2013-07-07 09:01:00,84.7,74.2,30.02,SW,219,1.0,1.0,71,0.00,,,0.00,WeatherCatV1.02B3,2013-07-07 13:01:00,
2013-07-07 09:06:00,84.7,74.6,30.02,SW,214,1.0,2.0,72,0.00,,,0.00,WeatherCatV1.02B3,2013-07-07 13:06:00,
2013-07-07 09:11:00,84.9,74.4,30.02,South,176,1.0,2.0,71,0.00,,,0.00,WeatherCatV1.02B3,2013-07-07 13:11:00,
2013-07-07 09:16:00,85.2,75.1,30.02,South,175,1.0,1.0,72,0.00,,,0.00,WeatherCatV1.02B3,2013-07-07 13:16:00,
2013-07-07 09:21:00,85.7,74.3,30.02,South,175,1.0,2.0,69,0.00,,,0.00,WeatherCatV1.02B3,2013-07-07 13:21:00,
2013-07-07 09:26:00,85.9,74.1,30.02,SSW,192,1.0,3.0,68,0.00,,,0.00,WeatherCatV1.02B3,2013-07-07 13:26:00,
2013-07-07 09:31:00,86.0,74.6,30.02,South,169,1.0,1.0,69,0.00,,,0.00,WeatherCatV1.02B3,2013-07-07 13:31:00,
2013-07-07 09:36:00,86.3,74.9,30.01,SSW,203,0.0,3.0,69,0.00,,,0.00,WeatherCatV1.02B3,2013-07-07 13:36:00,
2013-07-07 09:41:00,86.6,75.2,30.01,SSW,206,3.0,3.0,69,0.00,,,0.00,WeatherCatV1.02B3,2013-07-07 13:41:00,
2013-07-07 09:46:00,86.6,74.7,30.01,SW,215,3.0,3.0,68,0.00,,,0.00,WeatherCatV1.02B3,2013-07-07 13:46:00,
2013-07-07 09:51:00,86.8,74.9,30.01,SSW,209,0.0,1.0,68,0.00,,,0.00,WeatherCatV1.02B3,2013-07-07 13:51:00,
2013-07-07 09:56:00,87.2,75.3,30.01,SSW,209,0.0,1.0,68,0.00,,,0.00,WeatherCatV1.02B3,2013-07-07 13:56:00,
2013-07-07 10:01:00,87.6,75.7,30.01,SSW,205,1.0,2.0,68,0.00,,,0.00,WeatherCatV1.02B3,2013-07-07 14:01:00,
2013-07-07 10:06:00,87.9,75.5,30.01,SSW,205,0.0,2.0,67,0.00,,,0.00,WeatherCatV1.02B3,2013-07-07 14:06:00,
2013-07-07 10:11:00,88.2,75.4,30.01,ESE,111,0.0,1.0,66,0.00,,,0.00,WeatherCatV1.02B3,2013-07-07 14:11:00,
2013-07-07 10:16:00,88.4,75.6,30.01,East,97,1.0,2.0,66,0.00,,,0.00,WeatherCatV1.02B3,2013-07-07 14:16:00,
2013-07-07 10:21:00,88.6,75.3,30.01,SSW,198,1.0,4.0,65,0.00,,,0.00,WeatherCatV1.02B3,2013-07-07 14:21:00,
2013-07-07 10:26:00,88.5,75.2,30.00,SSE,150,0.0,2.0,65,0.00,,,0.00,WeatherCatV1.02B3,2013-07-07 14:26:00,
2013-07-07 10:31:00,88.6,75.8,30.00,South,180,1.0,2.0,66,0.00,,,0.00,WeatherCatV1.02B3,2013-07-07 14:31:00,
2013-07-07 10:36:00,88.7,75.4,30.00,SW,221,0.0,2.0,65,0.00,,,0.00,WeatherCatV1.02B3,2013-07-07 14:36:00,
2013-07-07 10:41:00,88.8,75.5,30.00,East,85,0.0,2.0,65,0.00,,,0.00,WeatherCatV1.02B3,2013-07-07 14:41:00,
2013-07-07 10:46:00,89.1,75.8,30.00,SSW,198,1.0,2.0,65,0.00,,,0.00,WeatherCatV1.02B3,2013-07-07 14:46:00,
2013-07-07 10:51:00,89.3,75.0,30.00,SSE,157,1.0,2.0,63,0.00,,,0.00,WeatherCatV1.02B3,2013-07-07 14:51:00,
2013-07-07 10:56:00,89.6,75.8,30.00,South,173,1.0,2.0,64,0.00,,,0.00,WeatherCatV1.02B3,2013-07-07 14:56:00,
2013-07-07 11:01:00,90.1,75.8,30.00,SSW,203,0.0,2.0,63,0.00,,,0.00,WeatherCatV1.02B3,2013-07-07 15:01:00,
2013-07-07 11:06:00,90.4,76.0,29.99,SW,216,3.0,5.0,63,0.00,,,0.00,WeatherCatV1.02B3,2013-07-07 15:06:00,
2013-07-07 11:11:00,90.6,75.3,29.99,SSW,213,1.0,2.0,61,0.00,,,0.00,WeatherCatV1.02B3,2013-07-07 15:11:00,
2013-07-07 11:16:00,90.8,75.0,29.99,SSE,166,1.0,3.0,60,0.00,,,0.00,WeatherCatV1.02B3,2013-07-07 15:16:00,
2013-07-07 11:21:00,90.8,75.0,29.99,East,92,0.0,2.0,60,0.00,,,0.00,WeatherCatV1.02B3,2013-07-07 15:21:00,
2013-07-07 11:26:00,91.0,74.6,29.99,East,92,1.0,1.0,59,0.00,,,0.00,WeatherCatV1.02B3,2013-07-07 15:26:00,
2013-07-07 11:31:00,91.2,75.3,29.99,SW,214,1.0,2.0,60,0.00,,,0.00,WeatherCatV1.02B3,2013-07-07 15:31:00,
2013-07-07 11:36:00,91.5,76.1,29.99,East,93,1.0,3.0,61,0.00,,,0.00,WeatherCatV1.02B3,2013-07-07 15:36:00,
2013-07-07 11:41:00,91.8,75.9,29.99,ESE,121,1.0,1.0,60,0.00,,,0.00,WeatherCatV1.02B3,2013-07-07 15:41:00,
2013-07-07 11:46:00,92.0,75.6,29.99,SSW,209,0.0,2.0,59,0.00,,,0.00,WeatherCatV1.02B3,2013-07-07 15:46:00,
2013-07-07 11:51:00,92.0,75.6,29.98,East,88,1.0,2.0,59,0.00,,,0.00,WeatherCatV1.02B3,2013-07-07 15:51:00,
2013-07-07 11:56:00,92.1,74.1,29.98,WSW,241,1.0,2.0,56,0.00,,,0.00,WeatherCatV1.02B3,2013-07-07 15:56:00,
2013-07-07 12:01:00,92.2,75.8,29.98,NNW,335,1.0,2.0,59,0.00,,,0.00,WeatherCatV1.02B3,2013-07-07 16:01:00,
2013-07-07 12:06:00,92.6,75.6,29.98,WSW,241,1.0,2.0,58,0.00,,,0.00,WeatherCatV1.02B3,2013-07-07 16:06:00,
2013-07-07 12:11:00,92.9,74.8,29.98,SSW,207,2.0,3.0,56,0.00,,,0.00,WeatherCatV1.02B3,2013-07-07 16:11:00,
2013-07-07 12:16:00,92.9,74.8,29.98,South,177,1.0,3.0,56,0.00,,,0.00,WeatherCatV1.02B3,2013-07-07 16:16:00,
2013-07-07 12:21:00,93.0,74.4,29.98,South,174,1.0,2.0,55,0.00,,,0.00,WeatherCatV1.02B3,2013-07-07 16:21:00,
2013-07-07 12:26:00,93.2,74.0,29.98,SW,225,1.0,3.0,54,0.00,,,0.00,WeatherCatV1.02B3,2013-07-07 16:26:00,
2013-07-07 12:31:00,93.2,75.1,29.98,SW,232,2.0,3.0,56,0.00,,,0.00,WeatherCatV1.02B3,2013-07-07 16:31:00,
2013-07-07 12:36:00,93.2,74.6,29.97,SSW,201,0.0,1.0,55,0.00,,,0.00,WeatherCatV1.02B3,2013-07-07 16:36:00,
2013-07-07 12:41:00,93.3,74.1,29.97,WSW,244,2.0,3.0,54,0.00,,,0.00,WeatherCatV1.02B3,2013-07-07 16:41:00,
2013-07-07 12:46:00,93.2,75.1,29.97,SSW,200,0.0,1.0,56,0.00,,,0.00,WeatherCatV1.02B3,2013-07-07 16:46:00,
2013-07-07 12:51:00,93.4,74.8,29.97,NE,44,1.0,2.0,55,0.00,,,0.00,WeatherCatV1.02B3,2013-07-07 16:51:00,
2013-07-07 12:56:00,93.6,75.0,29.97,ENE,62,2.0,3.0,55,0.00,,,0.00,WeatherCatV1.02B3,2013-07-07 16:56:00,
2013-07-07 13:01:00,93.8,74.0,29.97,South,173,1.0,2.0,53,0.00,,,0.00,WeatherCatV1.02B3,2013-07-07 17:01:00,
2013-07-07 13:06:00,93.9,74.1,29.97,SW,219,1.0,4.0,53,0.00,,,0.00,WeatherCatV1.02B3,2013-07-07 17:06:00,
2013-07-07 13:11:00,94.0,74.2,29.96,SW,222,2.0,3.0,53,0.00,,,0.00,WeatherCatV1.02B3,2013-07-07 17:11:00,
2013-07-07 13:16:00,93.9,73.6,29.97,SW,220,2.0,3.0,52,0.00,,,0.00,WeatherCatV1.02B3,2013-07-07 17:16:00,
2013-07-07 13:21:00,93.9,74.7,29.96,WSW,241,0.0,6.0,54,0.00,,,0.00,WeatherCatV1.02B3,2013-07-07 17:21:00,
2013-07-07 13:26:00,94.0,73.6,29.96,South,182,0.0,2.0,52,0.00,,,0.00,WeatherCatV1.02B3,2013-07-07 17:26:00,
2013-07-07 13:31:00,94.2,73.8,29.96,ENE,78,0.0,3.0,52,0.00,,,0.00,WeatherCatV1.02B3,2013-07-07 17:31:00,
2013-07-07 13:36:00,94.2,74.4,29.96,SW,233,2.0,4.0,53,0.00,,,0.00,WeatherCatV1.02B3,2013-07-07 17:36:00,
2013-07-07 13:41:00,94.2,72.7,29.96,SSW,209,1.0,3.0,50,0.00,,,0.00,WeatherCatV1.02B3,2013-07-07 17:41:00,
2013-07-07 13:46:00,94.2,73.2,29.96,WSW,238,2.0,4.0,51,0.00,,,0.00,WeatherCatV1.02B3,2013-07-07 17:46:00,
2013-07-07 13:51:00,94.2,72.1,29.96,WSW,244,2.0,3.0,49,0.00,,,0.00,WeatherCatV1.02B3,2013-07-07 17:51:00,
2013-07-07 13:56:00,94.1,72.6,29.95,South,179,2.0,3.0,50,0.00,,,0.00,WeatherCatV1.02B3,2013-07-07 17:56:00,
2013-07-07 14:01:00,94.1,72.6,29.95,SSW,203,1.0,2.0,50,0.00,,,0.00,WeatherCatV1.02B3,2013-07-07 18:01:00,
2013-07-07 14:06:00,94.3,73.3,29.95,ESE,102,0.0,2.0,51,0.00,,,0.00,WeatherCatV1.02B3,2013-07-07 18:06:00,
2013-07-07 14:11:00,94.9,72.7,29.95,WSW,244,1.0,3.0,49,0.00,,,0.00,WeatherCatV1.02B3,2013-07-07 18:11:00,
2013-07-07 14:16:00,95.0,72.8,29.95,SW,222,1.0,2.0,49,0.00,,,0.00,WeatherCatV1.02B3,2013-07-07 18:16:00,
2013-07-07 14:21:00,95.0,72.8,29.94,SSW,201,1.0,2.0,49,0.00,,,0.00,WeatherCatV1.02B3,2013-07-07 18:21:00,
2013-07-07 14:26:00,95.0,72.2,29.94,SW,216,0.0,2.0,48,0.00,,,0.00,WeatherCatV1.02B3,2013-07-07 18:26:00,
2013-07-07 14:31:00,94.8,72.6,29.94,SW,216,0.0,1.0,49,0.00,,,0.00,WeatherCatV1.02B3,2013-07-07 18:31:00,
2013-07-07 14:36:00,94.7,71.3,29.94,SSW,204,2.0,3.0,47,0.00,,,0.00,WeatherCatV1.02B3,2013-07-07 18:36:00,
2013-07-07 14:41:00,94.7,71.3,29.94,WSW,256,0.0,3.0,47,0.00,,,0.00,WeatherCatV1.02B3,2013-07-07 18:41:00,
2013-07-07 14:46:00,94.5,71.1,29.93,WSW,247,3.0,3.0,47,0.00,,,0.00,WeatherCatV1.02B3,2013-07-07 18:46:00,
2013-07-07 14:51:00,94.4,72.2,29.93,SW,215,2.0,5.0,49,0.00,,,0.00,WeatherCatV1.02B3,2013-07-07 18:51:00,
2013-07-07 14:56:00,94.3,71.5,29.93,WSW,248,0.0,1.0,48,0.00,,,0.00,WeatherCatV1.02B3,2013-07-07 18:56:00,
2013-07-07 15:01:00,94.4,72.2,29.93,SW,227,2.0,3.0,49,0.00,,,0.00,WeatherCatV1.02B3,2013-07-07 19:01:00,
2013-07-07 15:06:00,94.4,72.2,29.93,South,173,3.0,3.0,49,0.00,,,0.00,WeatherCatV1.02B3,2013-07-07 19:06:00,
2013-07-07 15:11:00,94.5,72.3,29.92,SSW,193,2.0,2.0,49,0.00,,,0.00,WeatherCatV1.02B3,2013-07-07 19:11:00,
2013-07-07 15:16:00,94.7,72.5,29.93,SW,218,2.0,5.0,49,0.00,,,0.00,WeatherCatV1.02B3,2013-07-07 19:16:00,
2013-07-07 15:21:00,94.6,73.0,29.92,SSE,164,0.0,3.0,50,0.00,,,0.00,WeatherCatV1.02B3,2013-07-07 19:21:00,
2013-07-07 15:26:00,94.2,73.2,29.93,SW,222,2.0,2.0,51,0.00,,,0.00,WeatherCatV1.02B3,2013-07-07 19:26:00,
2013-07-07 15:31:00,94.2,72.7,29.93,WSW,241,3.0,3.0,50,0.00,,,0.00,WeatherCatV1.02B3,2013-07-07 19:31:00,
2013-07-07 15:36:00,94.1,72.6,29.92,West,271,1.0,1.0,50,0.00,,,0.00,WeatherCatV1.02B3,2013-07-07 19:36:00,
2013-07-07 15:41:00,93.9,73.0,29.92,SW,232,0.0,4.0,51,0.00,,,0.00,WeatherCatV1.02B3,2013-07-07 19:41:00,
2013-07-07 15:46:00,93.6,73.8,29.92,WSW,239,1.0,2.0,53,0.00,,,0.00,WeatherCatV1.02B3,2013-07-07 19:46:00,
2013-07-07 15:51:00,93.7,73.9,29.92,South,190,2.0,4.0,53,0.00,,,0.00,WeatherCatV1.02B3,2013-07-07 19:51:00,
2013-07-07 15:56:00,93.5,72.6,29.92,SSW,212,2.0,3.0,51,0.00,,,0.00,WeatherCatV1.02B3,2013-07-07 19:56:00,
2013-07-07 16:01:00,93.1,73.4,29.91,SW,220,0.0,1.0,53,0.00,,,0.00,WeatherCatV1.02B3,2013-07-07 20:01:00,
2013-07-07 16:06:00,93.2,74.0,29.91,WSW,250,0.0,2.0,54,0.00,,,0.00,WeatherCatV1.02B3,2013-07-07 20:06:00,
2013-07-07 16:11:00,93.4,73.7,29.91,SW,216,3.0,4.0,53,0.00,,,0.00,WeatherCatV1.02B3,2013-07-07 20:11:00,
2013-07-07 16:16:00,93.3,74.1,29.91,SW,222,1.0,2.0,54,0.00,,,0.00,WeatherCatV1.02B3,2013-07-07 20:16:00,
2013-07-07 16:21:00,93.5,72.6,29.91,SW,229,2.0,4.0,51,0.00,,,0.00,WeatherCatV1.02B3,2013-07-07 20:21:00,
2013-07-07 16:26:00,93.5,72.6,29.91,SSW,210,2.0,3.0,51,0.00,,,0.00,WeatherCatV1.02B3,2013-07-07 20:26:00,
2013-07-07 16:31:00,93.4,73.7,29.91,SSW,209,0.0,2.0,53,0.00,,,0.00,WeatherCatV1.02B3,2013-07-07 20:31:00,
2013-07-07 16:36:00,93.2,72.9,29.91,WSW,254,2.0,3.0,52,0.00,,,0.00,WeatherCatV1.02B3,2013-07-07 20:36:00,
2013-07-07 16:41:00,93.0,72.7,29.91,WSW,250,2.0,4.0,52,0.00,,,0.00,WeatherCatV1.02B3,2013-07-07 20:41:00,
2013-07-07 16:46:00,93.0,72.7,29.90,West,274,1.0,2.0,52,0.00,,,0.00,WeatherCatV1.02B3,2013-07-07 20:46:00,
2013-07-07 16:51:00,92.9,73.8,29.90,West,273,1.0,2.0,54,0.00,,,0.00,WeatherCatV1.02B3,2013-07-07 20:51:00,
2013-07-07 16:56:00,92.8,73.1,29.90,SW,226,2.0,4.0,53,0.00,,,0.00,WeatherCatV1.02B3,2013-07-07 20:56:00,
2013-07-07 17:01:00,92.8,73.7,29.90,SW,227,2.0,3.0,54,0.00,,,0.00,WeatherCatV1.02B3,2013-07-07 21:01:00,
2013-07-07 17:06:00,92.8,73.7,29.91,SW,230,1.0,2.0,54,0.00,,,0.00,WeatherCatV1.02B3,2013-07-07 21:06:00,
2013-07-07 17:11:00,92.7,73.6,29.91,SW,221,2.0,2.0,54,0.00,,,0.00,WeatherCatV1.02B3,2013-07-07 21:11:00,
2013-07-07 17:16:00,92.6,73.5,29.91,SW,233,1.0,2.0,54,0.00,,,0.00,WeatherCatV1.02B3,2013-07-07 21:16:00,
2013-07-07 17:21:00,92.5,72.8,29.91,NNW,331,2.0,2.0,53,0.00,,,0.00,WeatherCatV1.02B3,2013-07-07 21:21:00,
2013-07-07 17:26:00,92.3,73.2,29.90,West,275,0.0,3.0,54,0.00,,,0.00,WeatherCatV1.02B3,2013-07-07 21:26:00,
2013-07-07 17:31:00,92.3,73.8,29.90,NW,325,1.0,2.0,55,0.00,,,0.00,WeatherCatV1.02B3,2013-07-07 21:31:00,
2013-07-07 17:36:00,92.3,74.3,29.90,SW,236,1.0,3.0,56,0.00,,,0.00,WeatherCatV1.02B3,2013-07-07 21:36:00,
2013-07-07 17:41:00,92.2,74.7,29.91,WSW,256,1.0,2.0,57,0.00,,,0.00,WeatherCatV1.02B3,2013-07-07 21:41:00,
2013-07-07 17:46:00,92.2,74.7,29.90,SW,216,2.0,3.0,57,0.00,,,0.00,WeatherCatV1.02B3,2013-07-07 21:46:00,
2013-07-07 17:51:00,92.0,74.0,29.90,SSE,155,1.0,3.0,56,0.00,,,0.00,WeatherCatV1.02B3,2013-07-07 21:51:00,
2013-07-07 17:56:00,91.8,74.4,29.90,SW,224,1.0,3.0,57,0.00,,,0.00,WeatherCatV1.02B3,2013-07-07 21:56:00,
2013-07-07 18:01:00,91.8,74.4,29.90,WSW,240,2.0,2.0,57,0.00,,,0.00,WeatherCatV1.02B3,2013-07-07 22:01:00,
2013-07-07 18:06:00,91.7,73.7,29.90,SW,214,2.0,4.0,56,0.00,,,0.00,WeatherCatV1.02B3,2013-07-07 22:06:00,
2013-07-07 18:11:00,91.6,74.2,29.90,SSW,208,2.0,5.0,57,0.00,,,0.00,WeatherCatV1.02B3,2013-07-07 22:11:00,
2013-07-07 18:16:00,91.5,74.1,29.90,SSW,213,1.0,2.0,57,0.00,,,0.00,WeatherCatV1.02B3,2013-07-07 22:16:00,
2013-07-07 18:21:00,91.3,73.9,29.91,SW,231,1.0,2.0,57,0.00,,,0.00,WeatherCatV1.02B3,2013-07-07 22:21:00,
2013-07-07 18:26:00,91.3,73.9,29.91,SW,229,1.0,2.0,57,0.00,,,0.00,WeatherCatV1.02B3,2013-07-07 22:26:00,
2013-07-07 18:31:00,91.3,73.9,29.91,WSW,256,1.0,2.0,57,0.00,,,0.00,WeatherCatV1.02B3,2013-07-07 22:31:00,
2013-07-07 18:36:00,91.3,73.9,29.91,SSW,210,2.0,2.0,57,0.00,,,0.00,WeatherCatV1.02B3,2013-07-07 22:36:00,
2013-07-07 18:41:00,91.2,73.3,29.91,SW,223,3.0,3.0,56,0.00,,,0.00,WeatherCatV1.02B3,2013-07-07 22:41:00,
2013-07-07 18:46:00,91.1,73.7,29.91,SW,228,1.0,3.0,57,0.00,,,0.00,WeatherCatV1.02B3,2013-07-07 22:46:00,
2013-07-07 18:51:00,91.0,73.1,29.91,SW,230,0.0,2.0,56,0.00,,,0.00,WeatherCatV1.02B3,2013-07-07 22:51:00,
2013-07-07 18:56:00,90.9,71.9,29.91,SSW,195,1.0,4.0,54,0.00,,,0.00,WeatherCatV1.02B3,2013-07-07 22:56:00,
2013-07-07 19:01:00,90.7,71.2,29.92,SSW,199,2.0,4.0,53,0.00,,,0.00,WeatherCatV1.02B3,2013-07-07 23:01:00,
2013-07-07 19:06:00,90.7,71.2,29.91,South,177,1.0,3.0,53,0.00,,,0.00,WeatherCatV1.02B3,2013-07-07 23:06:00,
2013-07-07 19:11:00,90.6,71.1,29.91,SSW,209,2.0,3.0,53,0.00,,,0.00,WeatherCatV1.02B3,2013-07-07 23:11:00,
2013-07-07 19:16:00,90.6,72.2,29.91,SW,221,1.0,4.0,55,0.00,,,0.00,WeatherCatV1.02B3,2013-07-07 23:16:00,
2013-07-07 19:21:00,90.5,72.6,29.91,SW,230,2.0,2.0,56,0.00,,,0.00,WeatherCatV1.02B3,2013-07-07 23:21:00,
2013-07-07 19:26:00,90.4,71.4,29.91,SW,229,2.0,2.0,54,0.00,,,0.00,WeatherCatV1.02B3,2013-07-07 23:26:00,
2013-07-07 19:31:00,90.3,72.4,29.91,WSW,243,1.0,2.0,56,0.00,,,0.00,WeatherCatV1.02B3,2013-07-07 23:31:00,
2013-07-07 19:36:00,90.1,72.8,29.91,WSW,248,2.0,3.0,57,0.00,,,0.00,WeatherCatV1.02B3,2013-07-07 23:36:00,
2013-07-07 19:41:00,89.9,72.1,29.91,SSW,212,1.0,2.0,56,0.00,,,0.00,WeatherCatV1.02B3,2013-07-07 23:41:00,
2013-07-07 19:46:00,89.7,72.4,29.91,WSW,258,1.0,2.0,57,0.00,,,0.00,WeatherCatV1.02B3,2013-07-07 23:46:00,
2013-07-07 19:51:00,89.6,72.8,29.92,SW,233,1.0,1.0,58,0.00,,,0.00,WeatherCatV1.02B3,2013-07-07 23:51:00,
2013-07-07 19:56:00,89.4,72.6,29.92,WSW,256,2.0,2.0,58,0.00,,,0.00,WeatherCatV1.02B3,2013-07-07 23:56:00,
2013-07-07 20:01:00,89.3,72.5,29.92,WSW,257,1.0,2.0,58,0.00,,,0.00,WeatherCatV1.02B3,2013-07-08 00:01:00,
2013-07-07 20:06:00,89.1,72.4,29.92,SSW,203,3.0,4.0,58,0.00,,,0.00,WeatherCatV1.02B3,2013-07-08 00:06:00,
2013-07-07 20:11:00,89.0,72.3,29.92,WSW,243,1.0,4.0,58,0.00,,,0.00,WeatherCatV1.02B3,2013-07-08 00:11:00,
2013-07-07 20:16:00,89.0,72.8,29.92,SW,233,1.0,2.0,59,0.00,,,0.00,WeatherCatV1.02B3,2013-07-08 00:16:00,
2013-07-07 20:21:00,88.9,73.2,29.92,SW,221,1.0,2.0,60,0.00,,,0.00,WeatherCatV1.02B3,2013-07-08 00:21:00,
2013-07-07 20:26:00,88.8,73.1,29.93,WSW,241,3.0,3.0,60,0.00,,,0.00,WeatherCatV1.02B3,2013-07-08 00:26:00,
2013-07-07 20:31:00,88.7,73.0,29.93,SW,220,2.0,4.0,60,0.00,,,0.00,WeatherCatV1.02B3,2013-07-08 00:31:00,
2013-07-07 20:36:00,88.6,72.9,29.93,SW,215,0.0,2.0,60,0.00,,,0.00,WeatherCatV1.02B3,2013-07-08 00:36:00,
2013-07-07 20:41:00,88.4,73.2,29.93,SSW,210,1.0,1.0,61,0.00,,,0.00,WeatherCatV1.02B3,2013-07-08 00:41:00,
2013-07-07 20:46:00,88.3,73.1,29.94,SSW,192,2.0,2.0,61,0.00,,,0.00,WeatherCatV1.02B3,2013-07-08 00:46:00,
2013-07-07 20:51:00,88.3,73.1,29.94,SW,215,1.0,2.0,61,0.00,,,0.00,WeatherCatV1.02B3,2013-07-08 00:51:00,
2013-07-07 20:56:00,88.2,73.0,29.95,SW,220,1.0,3.0,61,0.00,,,0.00,WeatherCatV1.02B3,2013-07-08 00:56:00,
2013-07-07 21:01:00,88.2,73.5,29.95,SSW,192,1.0,2.0,62,0.00,,,0.00,WeatherCatV1.02B3,2013-07-08 01:01:00,
2013-07-07 21:06:00,88.1,73.4,29.95,WSW,244,2.0,3.0,62,0.00,,,0.00,WeatherCatV1.02B3,2013-07-08 01:06:00,
2013-07-07 21:11:00,88.1,73.4,29.96,West,260,3.0,5.0,62,0.00,,,0.00,WeatherCatV1.02B3,2013-07-08 01:11:00,
2013-07-07 21:16:00,87.8,70.1,29.98,WSW,258,2.0,4.0,56,0.00,,,0.00,WeatherCatV1.02B3,2013-07-08 01:16:00,
2013-07-07 21:21:00,85.9,71.8,29.95,WNW,294,2.0,3.0,63,0.00,,,0.00,WeatherCatV1.02B3,2013-07-08 01:21:00,
2013-07-07 21:26:00,82.9,71.2,29.94,ENE,75,1.0,2.0,68,0.00,,,0.01,WeatherCatV1.02B3,2013-07-08 01:26:00,
2013-07-07 21:31:00,80.6,71.5,29.92,ENE,75,0.0,1.0,74,0.00,,,0.01,WeatherCatV1.02B3,2013-07-08 01:31:00,
2013-07-07 21:36:00,79.2,71.3,29.92,ENE,75,0.0,1.0,77,0.00,,,0.01,WeatherCatV1.02B3,2013-07-08 01:36:00,
2013-07-07 21:41:00,78.2,71.5,29.91,ENE,75,0.0,0.0,80,0.00,,,0.01,WeatherCatV1.02B3,2013-07-08 01:41:00,
2013-07-07 21:46:00,77.5,71.9,29.91,ENE,75,0.0,1.0,83,0.00,,,0.01,WeatherCatV1.02B3,2013-07-08 01:46:00,
2013-07-07 21:51:00,76.8,71.6,29.91,ENE,75,0.0,0.0,84,0.00,,,0.01,WeatherCatV1.02B3,2013-07-08 01:51:00,
2013-07-07 21:56:00,76.3,71.4,29.93,ENE,75,0.0,1.0,85,0.00,,,0.01,WeatherCatV1.02B3,2013-07-08 01:56:00,
2013-07-07 22:01:00,76.0,71.5,29.93,ENE,75,0.0,0.0,86,0.00,,,0.01,WeatherCatV1.02B3,2013-07-08 02:01:00,
2013-07-07 22:06:00,75.8,71.6,29.93,ENE,75,0.0,0.0,87,0.00,,,0.01,WeatherCatV1.02B3,2013-07-08 02:06:00,
2013-07-07 22:11:00,75.8,71.6,29.94,ENE,75,1.0,2.0,87,0.00,,,0.01,WeatherCatV1.02B3,2013-07-08 02:11:00,
2013-07-07 22:16:00,75.8,71.6,29.94,ENE,75,0.0,0.0,87,0.00,,,0.01,WeatherCatV1.02B3,2013-07-08 02:16:00,
2013-07-07 22:21:00,75.8,72.0,29.94,ENE,75,0.0,0.0,88,0.00,,,0.01,WeatherCatV1.02B3,2013-07-08 02:21:00,
2013-07-07 22:26:00,75.9,72.1,29.93,ENE,75,0.0,0.0,88,0.00,,,0.01,WeatherCatV1.02B3,2013-07-08 02:26:00,
2013-07-07 22:31:00,75.9,72.1,29.93,ENE,75,0.0,0.0,88,0.00,,,0.01,WeatherCatV1.02B3,2013-07-08 02:31:00,
2013-07-07 22:36:00,75.9,71.7,29.93,ENE,75,0.0,1.0,87,0.00,,,0.01,WeatherCatV1.02B3,2013-07-08 02:36:00,
2013-07-07 22:41:00,76.1,71.9,29.94,ENE,75,0.0,1.0,87,0.00,,,0.01,WeatherCatV1.02B3,2013-07-08 02:41:00,
2013-07-07 22:46:00,76.2,72.0,29.94,ENE,75,0.0,0.0,87,0.00,,,0.01,WeatherCatV1.02B3,2013-07-08 02:46:00,
2013-07-07 22:51:00,76.3,72.1,29.95,ENE,75,0.0,1.0,87,0.00,,,0.01,WeatherCatV1.02B3,2013-07-08 02:51:00,
2013-07-07 22:56:00,76.3,72.1,29.95,ENE,75,0.0,1.0,87,0.00,,,0.01,WeatherCatV1.02B3,2013-07-08 02:56:00,
2013-07-07 23:01:00,76.4,71.5,29.95,SW,231,0.0,1.0,85,0.00,,,0.01,WeatherCatV1.02B3,2013-07-08 03:01:00,
2013-07-07 23:06:00,76.4,70.5,29.96,SW,218,1.0,2.0,82,0.00,,,0.01,WeatherCatV1.02B3,2013-07-08 03:06:00,
2013-07-07 23:11:00,76.5,69.9,29.96,SW,231,1.0,3.0,80,0.00,,,0.01,WeatherCatV1.02B3,2013-07-08 03:11:00,
2013-07-07 23:16:00,76.6,69.6,29.96,SW,225,0.0,2.0,79,0.00,,,0.01,WeatherCatV1.02B3,2013-07-08 03:16:00,
2013-07-07 23:21:00,76.7,69.7,29.96,SW,225,0.0,1.0,79,0.00,,,0.01,WeatherCatV1.02B3,2013-07-08 03:21:00,
2013-07-07 23:26:00,76.7,69.3,29.96,SSW,202,2.0,4.0,78,0.00,,,0.01,WeatherCatV1.02B3,2013-07-08 03:26:00,
2013-07-07 23:31:00,76.8,69.4,29.96,SSW,208,1.0,2.0,78,0.00,,,0.01,WeatherCatV1.02B3,2013-07-08 03:31:00,
2013-07-07 23:36:00,76.8,69.4,29.96,SSW,208,0.0,2.0,78,0.00,,,0.01,WeatherCatV1.02B3,2013-07-08 03:36:00,
2013-07-07 23:41:00,76.7,68.9,29.96,SSW,208,0.0,1.0,77,0.00,,,0.01,WeatherCatV1.02B3,2013-07-08 03:41:00,
2013-07-07 23:46:00,76.7,68.9,29.96,SSW,211,1.0,1.0,77,0.00,,,0.01,WeatherCatV1.02B3,2013-07-08 03:46:00,
2013-07-07 23:51:00,76.6,69.2,29.96,SSW,211,0.0,0.0,78,0.00,,,0.01,WeatherCatV1.02B3,2013-07-08 03:51:00,
2013-07-07 23:56:00,76.5,69.1,29.96,SSW,211,0.0,0.0,78,0.00,,,0.01,WeatherCatV1.02B3,2013-07-08 03:56:00,